Home   Weather   Post Falls   Past weeks
Flag for USA

Past Weather in Post Falls, Idaho, USA — Yesterday and Last 2 Weeks

Now
53 °F

Clear.


Feels Like: 49 °F
Forecast: 66 / 43 °F
Wind: 13 mph from Northeast

Location: Coeur d'Alene Weather Reporting System

Current Time: May 19, 2019 at 9:39:15 pm

Latest Report: May 19, 2019 at 8:56 pm


Visibility: 10 mi

Pressure: 29.80 "Hg (27.52 "Hg at 664m altitude)

Humidity: 51%

Dew Point: 35 °F

Location of Post FallsLocation

Past Weather in Post Falls — Graph

°F

Post Falls Temperature Yesterday

Maximum temperature yesterday: 55 °F (at 3:56 pm)
Minimum temperature yesterday: 44 °F (at 5:56 am)
Average temperature yesterday: 48 °F

High & Low Weather Summary for the Past Weeks

 TemperatureHumidityPressure
High81 °F (May 11, 2:56 pm)100% (May 17, 8:44 am)30.22 "Hg (May 17, 8:44 am)
Low41 °F (May 6, 5:56 am)17% (May 7, 2:56 pm)29.48 "Hg (May 16, 3:56 pm)
Average58 °F60%29.89 "Hg
* Reported May 4 7:56 pm — May 19 7:56 pm, Post Falls. Weather by CustomWeather, © 2019

Note: Actual official high and low records may vary slightly from our data, if they occured in-between our weather recording intervals... More about our weather records

Advertising

Post Falls Weather History for the Previous 24 Hours

Scroll right to see more
 ConditionsComfort  
Time TempWeatherWind HumidityBarometerVisibility
7:56 pm
Sun, May 19
56 °FSunny.17 mph46%29.79 "Hg10 mi
6:56 pm59 °FSunny.18 mph44%29.76 "Hg10 mi
5:56 pm61 °FPassing clouds.18 mph41%29.76 "Hg10 mi
4:56 pm62 °FScattered clouds.20 mph41%29.76 "Hg10 mi
3:56 pm63 °FPassing clouds.20 mph41%29.75 "Hg10 mi
2:56 pm63 °FOvercast.17 mph43%29.76 "Hg10 mi
1:56 pm64 °FPartly sunny.20 mph43%29.76 "Hg10 mi
12:56 pm61 °FPassing clouds.18 mph46%29.76 "Hg10 mi
11:56 am60 °FSunny.22 mph47%29.78 "Hg10 mi
10:56 am58 °FSunny.22 mph50%29.79 "Hg10 mi
9:56 am56 °FSunny.18 mph53%29.81 "Hg10 mi
8:56 am54 °FSunny.20 mph55%29.83 "Hg10 mi
7:56 am51 °FSunny.18 mph61%29.83 "Hg10 mi
6:56 am47 °FSunny.16 mph69%29.84 "Hg10 mi
5:56 am45 °FSunny.16 mph71%29.85 "Hg10 mi
4:56 am45 °FClear.14 mph74%29.85 "Hg10 mi
3:56 am46 °FClear.13 mph71%29.85 "Hg10 mi
2:56 am47 °FClear.14 mph71%29.85 "Hg10 mi
1:56 am48 °FPassing clouds.16 mph71%29.86 "Hg10 mi
12:56 am48 °FOvercast.15 mph74%29.88 "Hg10 mi
11:56 pm
Sat, May 18
48 °FPassing clouds.15 mph80%29.88 "Hg10 mi
10:56 pm48 °FClear.14 mph86%29.89 "Hg10 mi
9:56 pm48 °FClear.12 mph86%29.89 "Hg10 mi
Weather by CustomWeather, © 2019

See weather overview